Time,TemperatureF,DewpointF,PressureIn,WindDirection,WindDirectionDegrees,WindSpeedMPH,WindSpeedGustMPH,Humidity,HourlyPrecipIn,Conditions,Clouds,dailyrainin,SoftwareType,DateUTC
2013-08-26 00:00:00,61.2,37.9,30.34,ESE,117,0.0,0.0,42,0.00,,---,0.00,VWS V14.01,2013-08-26 04:00:00,
2013-08-26 00:01:00,61.2,37.9,30.34,ESE,117,0.0,0.0,42,0.00,,---,0.00,VWS V14.01,2013-08-26 04:01:00,
2013-08-26 00:06:00,61.0,37.8,30.34,ESE,117,0.0,0.0,42,0.00,,---,0.00,VWS V14.01,2013-08-26 04:06:00,
2013-08-26 00:11:00,60.8,37.6,30.34,ESE,117,0.0,0.0,42,0.00,,---,0.00,VWS V14.01,2013-08-26 04:11:00,
2013-08-26 00:16:00,60.8,37.6,30.34,ESE,117,0.0,0.0,42,0.00,,---,0.00,VWS V14.01,2013-08-26 04:16:00,
2013-08-26 00:21:00,60.6,37.4,30.34,ESE,117,0.0,0.0,42,0.00,,---,0.00,VWS V14.01,2013-08-26 04:21:00,
2013-08-26 00:26:00,60.4,37.3,30.34,ESE,117,0.0,0.0,42,0.00,,---,0.00,VWS V14.01,2013-08-26 04:26:00,
2013-08-26 00:31:00,60.4,37.3,30.34,ESE,117,0.0,0.0,42,0.00,,---,0.00,VWS V14.01,2013-08-26 04:31:00,
2013-08-26 00:36:00,60.4,37.3,30.34,ESE,117,0.0,0.0,42,0.00,,---,0.00,VWS V14.01,2013-08-26 04:36:00,
2013-08-26 00:41:00,60.4,37.3,30.34,SSE,155,0.0,0.0,42,0.00,,---,0.00,VWS V14.01,2013-08-26 04:41:00,
2013-08-26 00:46:00,60.3,37.1,30.34,SSE,155,0.0,0.0,42,0.00,,---,0.00,VWS V14.01,2013-08-26 04:46:00,
2013-08-26 00:51:00,60.3,37.1,30.34,SE,143,0.0,0.0,42,0.00,,---,0.00,VWS V14.01,2013-08-26 04:51:00,
2013-08-26 00:56:00,60.1,36.9,30.37,SE,143,0.0,0.0,42,0.00,,---,0.00,VWS V14.01,2013-08-26 04:56:00,
2013-08-26 01:01:00,60.1,36.9,30.37,SE,143,0.0,0.0,42,0.00,,---,0.00,VWS V14.01,2013-08-26 05:01:00,
2013-08-26 01:06:00,59.9,37.4,30.37,SE,143,0.0,0.0,43,0.00,,---,0.00,VWS V14.01,2013-08-26 05:06:00,
2013-08-26 01:11:00,59.7,37.2,30.37,SE,143,0.0,0.0,43,0.00,,---,0.00,VWS V14.01,2013-08-26 05:11:00,
2013-08-26 01:16:00,59.7,37.2,30.37,SE,143,0.0,0.0,43,0.00,,---,0.00,VWS V14.01,2013-08-26 05:16:00,
2013-08-26 01:21:00,59.7,37.8,30.37,SE,143,0.0,0.0,44,0.00,,---,0.00,VWS V14.01,2013-08-26 05:21:00,
2013-08-26 01:26:00,59.7,37.8,30.34,SE,143,0.0,0.0,44,0.00,,---,0.00,VWS V14.01,2013-08-26 05:26:00,
2013-08-26 01:31:00,59.7,37.8,30.34,SE,143,0.0,0.0,44,0.00,,---,0.00,VWS V14.01,2013-08-26 05:31:00,
2013-08-26 01:36:00,59.5,37.6,30.34,SE,143,0.0,0.0,44,0.00,,---,0.00,VWS V14.01,2013-08-26 05:36:00,
2013-08-26 01:41:00,59.5,38.2,30.34,SE,143,0.0,0.0,45,0.00,,---,0.00,VWS V14.01,2013-08-26 05:41:00,
2013-08-26 01:46:00,59.4,38.0,30.34,SE,143,0.0,0.0,45,0.00,,---,0.00,VWS V14.01,2013-08-26 05:46:00,
2013-08-26 01:51:00,59.4,38.0,30.34,SE,143,0.0,0.0,45,0.00,,---,0.00,VWS V14.01,2013-08-26 05:51:00,
2013-08-26 01:56:00,59.2,37.9,30.34,SE,143,0.0,0.0,45,0.00,,---,0.00,VWS V14.01,2013-08-26 05:56:00,
2013-08-26 02:01:00,59.2,37.9,30.34,SE,143,0.0,0.0,45,0.00,,---,0.00,VWS V14.01,2013-08-26 06:01:00,
2013-08-26 02:06:00,59.0,37.7,30.34,SE,143,0.0,0.0,45,0.00,,---,0.00,VWS V14.01,2013-08-26 06:06:00,
2013-08-26 02:11:00,59.0,37.7,30.31,SE,143,0.0,0.0,45,0.00,,---,0.00,VWS V14.01,2013-08-26 06:11:00,
2013-08-26 02:16:00,58.8,38.1,30.31,SE,143,0.0,0.0,46,0.00,,---,0.00,VWS V14.01,2013-08-26 06:16:00,
2013-08-26 02:21:00,58.6,37.9,30.31,SE,143,0.0,0.0,46,0.00,,---,0.00,VWS V14.01,2013-08-26 06:21:00,
2013-08-26 02:26:00,58.5,37.8,30.34,SE,143,0.0,0.0,46,0.00,,---,0.00,VWS V14.01,2013-08-26 06:26:00,
2013-08-26 02:31:00,58.5,37.8,30.34,SE,143,0.0,0.0,46,0.00,,---,0.00,VWS V14.01,2013-08-26 06:31:00,
2013-08-26 02:36:00,58.3,37.6,30.34,SE,143,0.0,0.0,46,0.00,,---,0.00,VWS V14.01,2013-08-26 06:36:00,
2013-08-26 02:40:00,58.1,37.5,30.31,SE,143,0.0,0.0,46,0.00,,---,0.00,VWS V14.01,2013-08-26 06:40:00,
2013-08-26 02:45:00,57.9,37.8,30.31,SE,143,0.0,0.0,47,0.00,,---,0.00,VWS V14.01,2013-08-26 06:45:00,
2013-08-26 02:50:00,57.9,37.8,30.31,SE,143,0.0,0.0,47,0.00,,---,0.00,VWS V14.01,2013-08-26 06:50:00,
2013-08-26 02:55:00,57.9,37.8,30.31,SE,143,0.0,0.0,47,0.00,,---,0.00,VWS V14.01,2013-08-26 06:55:00,
2013-08-26 03:00:00,57.6,37.5,30.31,SE,143,0.0,0.0,47,0.00,,---,0.00,VWS V14.01,2013-08-26 07:00:00,
2013-08-26 03:05:00,57.4,37.3,30.31,SE,140,0.0,0.0,47,0.00,,---,0.00,VWS V14.01,2013-08-26 07:05:00,
2013-08-26 03:10:00,57.0,37.5,30.31,SE,140,0.0,0.0,48,0.00,,---,0.00,VWS V14.01,2013-08-26 07:10:00,
2013-08-26 03:15:00,56.7,37.2,30.31,SE,140,0.0,0.0,48,0.00,,---,0.00,VWS V14.01,2013-08-26 07:15:00,
2013-08-26 03:20:00,56.5,37.0,30.31,SE,140,0.0,0.0,48,0.00,,---,0.00,VWS V14.01,2013-08-26 07:20:00,
2013-08-26 03:25:00,56.1,36.7,30.31,SE,140,0.0,0.0,48,0.00,,---,0.00,VWS V14.01,2013-08-26 07:25:00,
2013-08-26 03:30:00,55.9,36.5,30.31,SE,140,0.0,0.0,48,0.00,,---,0.00,VWS V14.01,2013-08-26 07:30:00,
2013-08-26 03:35:00,55.6,36.2,30.31,SE,140,0.0,0.0,48,0.00,,---,0.00,VWS V14.01,2013-08-26 07:35:00,
2013-08-26 03:40:00,55.4,36.1,30.31,SE,140,0.0,0.0,48,0.00,,---,0.00,VWS V14.01,2013-08-26 07:40:00,
2013-08-26 03:45:00,55.2,36.4,30.31,SE,140,0.0,0.0,49,0.00,,---,0.00,VWS V14.01,2013-08-26 07:45:00,
2013-08-26 03:50:00,54.9,36.1,30.31,SE,140,0.0,0.0,49,0.00,,---,0.00,VWS V14.01,2013-08-26 07:50:00,
2013-08-26 03:55:00,54.9,36.6,30.31,SE,140,0.0,0.0,50,0.00,,---,0.00,VWS V14.01,2013-08-26 07:55:00,
2013-08-26 04:00:00,54.7,36.4,30.31,SE,140,0.0,0.0,50,0.00,,---,0.00,VWS V14.01,2013-08-26 08:00:00,
2013-08-26 04:05:00,54.5,36.3,30.31,SE,140,0.0,0.0,50,0.00,,---,0.00,VWS V14.01,2013-08-26 08:05:00,
2013-08-26 04:10:00,54.5,36.8,30.31,SE,140,0.0,0.0,51,0.00,,---,0.00,VWS V14.01,2013-08-26 08:10:00,
2013-08-26 04:15:00,54.5,36.8,30.31,SE,140,0.0,0.0,51,0.00,,---,0.00,VWS V14.01,2013-08-26 08:15:00,
2013-08-26 04:20:00,54.3,36.6,30.31,SE,140,0.0,0.0,51,0.00,,---,0.00,VWS V14.01,2013-08-26 08:20:00,
2013-08-26 04:25:00,54.1,36.4,30.31,SE,140,0.0,0.0,51,0.00,,---,0.00,VWS V14.01,2013-08-26 08:25:00,
2013-08-26 04:30:00,54.1,36.9,30.31,SE,140,0.0,0.0,52,0.00,,---,0.00,VWS V14.01,2013-08-26 08:30:00,
2013-08-26 04:35:00,54.0,36.8,30.31,SE,140,0.0,0.0,52,0.00,,---,0.00,VWS V14.01,2013-08-26 08:35:00,
2013-08-26 04:40:00,53.8,36.6,30.31,SE,140,0.0,0.0,52,0.00,,---,0.00,VWS V14.01,2013-08-26 08:40:00,
2013-08-26 04:45:00,53.8,37.1,30.31,SE,140,0.0,0.0,53,0.00,,---,0.00,VWS V14.01,2013-08-26 08:45:00,
2013-08-26 04:50:00,54.0,37.2,30.31,SE,140,0.0,0.0,53,0.00,,---,0.00,VWS V14.01,2013-08-26 08:50:00,
2013-08-26 04:55:00,53.8,37.1,30.31,SE,140,0.0,0.0,53,0.00,,---,0.00,VWS V14.01,2013-08-26 08:55:00,
2013-08-26 05:00:00,53.8,37.5,30.31,SE,140,0.0,0.0,54,0.00,,---,0.00,VWS V14.01,2013-08-26 09:00:00,
2013-08-26 05:05:00,53.6,37.4,30.31,SE,140,0.0,0.0,54,0.00,,---,0.00,VWS V14.01,2013-08-26 09:05:00,
2013-08-26 05:10:00,53.6,37.4,30.31,SE,140,0.0,0.0,54,0.00,,---,0.00,VWS V14.01,2013-08-26 09:10:00,
2013-08-26 05:15:00,53.6,37.8,30.31,SE,140,0.0,0.0,55,0.00,,---,0.00,VWS V14.01,2013-08-26 09:15:00,
2013-08-26 05:20:00,53.6,37.8,30.31,SE,140,0.0,0.0,55,0.00,,---,0.00,VWS V14.01,2013-08-26 09:20:00,
2013-08-26 05:25:00,53.6,38.3,30.31,SE,140,0.0,0.0,56,0.00,,---,0.00,VWS V14.01,2013-08-26 09:25:00,
2013-08-26 05:30:00,53.4,38.1,30.31,SE,140,0.0,0.0,56,0.00,,---,0.00,VWS V14.01,2013-08-26 09:30:00,
2013-08-26 05:35:00,53.4,38.6,30.31,SE,140,0.0,0.0,57,0.00,,---,0.00,VWS V14.01,2013-08-26 09:35:00,
2013-08-26 05:40:00,53.4,38.6,30.31,SE,140,0.0,0.0,57,0.00,,---,0.00,VWS V14.01,2013-08-26 09:40:00,
2013-08-26 05:45:00,53.6,38.8,30.31,SE,140,0.0,0.0,57,0.00,,---,0.00,VWS V14.01,2013-08-26 09:45:00,
2013-08-26 05:50:00,53.6,39.2,30.31,SE,140,0.0,0.0,58,0.00,,---,0.00,VWS V14.01,2013-08-26 09:50:00,
2013-08-26 05:55:00,53.8,39.8,30.31,SE,140,0.0,0.0,59,0.00,,---,0.00,VWS V14.01,2013-08-26 09:55:00,
2013-08-26 06:00:00,53.8,39.8,30.31,SE,140,0.0,0.0,59,0.00,,---,0.00,VWS V14.01,2013-08-26 10:00:00,
2013-08-26 06:05:00,53.8,39.8,30.31,SE,140,0.0,0.0,59,0.00,,---,0.00,VWS V14.01,2013-08-26 10:05:00,
2013-08-26 06:10:00,53.8,40.2,30.31,SE,140,0.0,0.0,60,0.00,,---,0.00,VWS V14.01,2013-08-26 10:10:00,
2013-08-26 06:15:00,53.8,40.2,30.31,SE,140,0.0,0.0,60,0.00,,---,0.00,VWS V14.01,2013-08-26 10:15:00,
2013-08-26 06:20:00,53.8,40.7,30.31,SE,140,0.0,0.0,61,0.00,,---,0.00,VWS V14.01,2013-08-26 10:20:00,
2013-08-26 06:25:00,53.8,40.7,30.31,SE,140,0.0,0.0,61,0.00,,---,0.00,VWS V14.01,2013-08-26 10:25:00,
2013-08-26 06:30:00,53.8,40.7,30.31,SE,140,0.0,0.0,61,0.00,,---,0.00,VWS V14.01,2013-08-26 10:30:00,
2013-08-26 06:35:00,53.8,41.1,30.31,SE,140,0.0,0.0,62,0.00,,---,0.00,VWS V14.01,2013-08-26 10:35:00,
2013-08-26 06:40:00,53.6,40.9,30.31,SE,140,0.0,0.0,62,0.00,,---,0.00,VWS V14.01,2013-08-26 10:40:00,
2013-08-26 06:45:00,53.6,41.3,30.31,SE,140,0.0,0.0,63,0.00,,---,0.00,VWS V14.01,2013-08-26 10:45:00,
2013-08-26 06:50:00,53.4,41.2,30.31,SE,140,0.0,0.0,63,0.00,,---,0.00,VWS V14.01,2013-08-26 10:50:00,
2013-08-26 06:55:00,53.4,41.6,30.31,SE,140,0.0,0.0,64,0.00,,---,0.00,VWS V14.01,2013-08-26 10:55:00,
2013-08-26 07:00:00,53.4,42.0,30.31,SE,140,0.0,0.0,65,0.00,,---,0.00,VWS V14.01,2013-08-26 11:00:00,
2013-08-26 07:05:00,53.4,42.0,30.31,SE,140,0.0,0.0,65,0.00,,---,0.00,VWS V14.01,2013-08-26 11:05:00,
2013-08-26 07:10:00,53.4,42.4,30.31,SE,140,0.0,0.0,66,0.00,,---,0.00,VWS V14.01,2013-08-26 11:10:00,
2013-08-26 07:15:00,53.4,42.4,30.31,SE,140,0.0,0.0,66,0.00,,---,0.00,VWS V14.01,2013-08-26 11:15:00,
2013-08-26 07:20:00,53.8,43.1,30.31,SE,140,0.0,0.0,67,0.00,,---,0.00,VWS V14.01,2013-08-26 11:20:00,
2013-08-26 07:25:00,54.1,44.2,30.31,SE,140,0.0,0.0,69,0.00,,---,0.00,VWS V14.01,2013-08-26 11:25:00,
2013-08-26 07:30:00,55.0,46.5,30.31,SE,140,0.0,0.0,73,0.00,,---,0.00,VWS V14.01,2013-08-26 11:30:00,
2013-08-26 07:35:00,56.3,47.8,30.31,SE,140,0.0,0.0,73,0.00,,---,0.00,VWS V14.01,2013-08-26 11:35:00,
2013-08-26 07:40:00,57.0,46.6,30.31,SE,140,0.0,0.0,68,0.00,,---,0.00,VWS V14.01,2013-08-26 11:40:00,
2013-08-26 07:45:00,57.7,47.3,30.31,SE,140,0.0,0.0,68,0.00,,---,0.00,VWS V14.01,2013-08-26 11:45:00,
2013-08-26 07:50:00,58.5,47.6,30.31,SE,140,0.0,0.0,67,0.00,,---,0.00,VWS V14.01,2013-08-26 11:50:00,
2013-08-26 07:55:00,59.0,48.5,30.31,SE,140,0.0,0.0,68,0.00,,---,0.00,VWS V14.01,2013-08-26 11:55:00,
2013-08-26 08:00:00,59.7,49.5,30.31,ENE,58,0.0,0.0,69,0.00,,---,0.00,VWS V14.01,2013-08-26 12:00:00,
2013-08-26 08:05:00,60.3,50.5,30.31,North,10,0.0,0.0,70,0.00,,---,0.00,VWS V14.01,2013-08-26 12:05:00,
2013-08-26 08:10:00,61.0,51.1,30.31,North,10,0.0,0.0,70,0.00,,---,0.00,VWS V14.01,2013-08-26 12:10:00,
2013-08-26 08:15:00,61.9,52.0,30.31,North,10,0.0,0.0,70,0.00,,---,0.00,VWS V14.01,2013-08-26 12:15:00,
2013-08-26 08:20:00,62.4,51.3,30.31,North,10,0.0,0.0,67,0.00,,---,0.00,VWS V14.01,2013-08-26 12:20:00,
2013-08-26 08:25:00,62.8,49.6,30.31,North,10,0.0,0.0,62,0.00,,---,0.00,VWS V14.01,2013-08-26 12:25:00,
2013-08-26 08:30:00,63.0,48.0,30.31,WNW,294,0.0,0.0,58,0.00,,---,0.00,VWS V14.01,2013-08-26 12:30:00,
2013-08-26 08:35:00,63.3,48.3,30.31,NW,317,0.0,0.0,58,0.00,,---,0.00,VWS V14.01,2013-08-26 12:35:00,
2013-08-26 08:40:00,63.5,49.4,30.28,West,276,0.0,0.0,60,0.00,,---,0.00,VWS V14.01,2013-08-26 12:40:00,
2013-08-26 08:45:00,64.0,50.8,30.28,WSW,254,0.0,0.0,62,0.00,,---,0.00,VWS V14.01,2013-08-26 12:45:00,
2013-08-26 08:50:00,64.2,48.7,30.28,WSW,253,0.0,0.0,57,0.00,,---,0.00,VWS V14.01,2013-08-26 12:50:00,
2013-08-26 08:55:00,64.6,43.4,30.31,WSW,241,0.0,0.0,46,0.00,,---,0.00,VWS V14.01,2013-08-26 12:55:00,
2013-08-26 09:00:00,65.3,42.2,30.31,NNW,337,0.0,0.0,43,0.00,,---,0.00,VWS V14.01,2013-08-26 13:00:00,
2013-08-26 09:05:00,65.8,40.9,30.31,South,190,3.6,3.6,40,0.00,,---,0.00,VWS V14.01,2013-08-26 13:05:00,
2013-08-26 09:10:00,66.2,39.2,30.31,SSW,194,0.0,0.0,37,0.00,,---,0.00,VWS V14.01,2013-08-26 13:10:00,
2013-08-26 09:15:00,67.1,41.3,30.31,SW,219,0.0,0.0,39,0.00,,---,0.00,VWS V14.01,2013-08-26 13:15:00,
2013-08-26 09:20:00,67.6,41.2,30.31,SSW,204,0.0,0.0,38,0.00,,---,0.00,VWS V14.01,2013-08-26 13:20:00,
2013-08-26 09:25:00,68.2,39.5,30.31,WSW,257,2.7,2.7,35,0.00,,---,0.00,VWS V14.01,2013-08-26 13:25:00,
2013-08-26 09:30:00,68.4,38.9,30.31,SSE,152,0.0,0.0,34,0.00,,---,0.00,VWS V14.01,2013-08-26 13:30:00,
2013-08-26 09:35:00,68.7,39.2,30.31,WSW,251,4.9,4.9,34,0.00,,---,0.00,VWS V14.01,2013-08-26 13:35:00,
2013-08-26 09:40:00,69.1,39.6,30.31,West,278,0.0,0.0,34,0.00,,---,0.00,VWS V14.01,2013-08-26 13:40:00,
2013-08-26 09:45:00,69.4,39.1,30.31,West,280,3.1,3.1,33,0.00,,---,0.00,VWS V14.01,2013-08-26 13:45:00,
2013-08-26 09:50:00,69.6,39.3,30.31,WNW,299,0.0,0.0,33,0.00,,---,0.00,VWS V14.01,2013-08-26 13:50:00,
2013-08-26 09:55:00,70.0,39.6,30.31,WSW,254,3.1,3.1,33,0.00,,---,0.00,VWS V14.01,2013-08-26 13:55:00,
2013-08-26 10:00:00,70.3,39.9,30.31,WSW,255,0.0,0.0,33,0.00,,---,0.00,VWS V14.01,2013-08-26 14:00:00,
2013-08-26 10:05:00,70.7,40.2,30.31,West,260,0.0,0.0,33,0.00,,---,0.00,VWS V14.01,2013-08-26 14:05:00,
2013-08-26 10:10:00,71.2,40.7,30.31,West,273,0.0,0.0,33,0.00,,---,0.00,VWS V14.01,2013-08-26 14:10:00,
2013-08-26 10:15:00,71.6,40.2,30.31,North,0,0.0,0.0,32,0.00,,---,0.00,VWS V14.01,2013-08-26 14:15:00,
2013-08-26 10:20:00,72.1,40.7,30.31,WNW,300,0.0,0.0,32,0.00,,---,0.00,VWS V14.01,2013-08-26 14:20:00,
2013-08-26 10:25:00,72.7,41.2,30.31,NW,304,3.6,3.6,32,0.00,,---,0.00,VWS V14.01,2013-08-26 14:25:00,
2013-08-26 10:30:00,73.2,41.6,30.31,NW,304,0.0,0.0,32,0.00,,---,0.00,VWS V14.01,2013-08-26 14:30:00,
2013-08-26 10:35:00,73.6,41.9,30.31,WNW,301,0.0,0.0,32,0.00,,---,0.00,VWS V14.01,2013-08-26 14:35:00,
2013-08-26 10:40:00,74.3,42.6,30.31,West,266,3.1,3.1,32,0.00,,---,0.00,VWS V14.01,2013-08-26 14:40:00,
2013-08-26 10:45:00,74.5,42.7,30.31,NNW,338,0.0,0.0,32,0.00,,---,0.00,VWS V14.01,2013-08-26 14:45:00,
2013-08-26 10:50:00,74.8,42.2,30.31,NW,319,5.4,5.4,31,0.00,,---,0.00,VWS V14.01,2013-08-26 14:50:00,
2013-08-26 10:55:00,75.0,42.4,30.31,WNW,290,4.0,4.0,31,0.00,,---,0.00,VWS V14.01,2013-08-26 14:55:00,
2013-08-26 11:00:00,75.2,42.5,30.31,West,265,0.0,0.0,31,0.00,,---,0.00,VWS V14.01,2013-08-26 15:00:00,
2013-08-26 11:05:00,75.6,42.8,30.31,West,268,2.7,2.7,31,0.00,,---,0.00,VWS V14.01,2013-08-26 15:05:00,
2013-08-26 11:10:00,76.1,43.3,30.31,SW,222,0.0,0.0,31,0.00,,---,0.00,VWS V14.01,2013-08-26 15:10:00,
2013-08-26 11:15:00,76.6,43.8,30.31,WSW,247,4.0,4.0,31,0.00,,---,0.00,VWS V14.01,2013-08-26 15:15:00,
2013-08-26 11:20:00,77.0,44.1,30.31,North,357,0.0,0.0,31,0.00,,---,0.00,VWS V14.01,2013-08-26 15:20:00,
2013-08-26 11:25:00,77.2,44.2,30.31,NNW,327,0.0,0.0,31,0.00,,---,0.00,VWS V14.01,2013-08-26 15:25:00,
2013-08-26 11:30:00,77.2,44.2,30.31,North,357,0.0,0.0,31,0.00,,---,0.00,VWS V14.01,2013-08-26 15:30:00,
2013-08-26 11:35:00,77.5,44.5,30.31,NNW,327,0.0,0.0,31,0.00,,---,0.00,VWS V14.01,2013-08-26 15:35:00,
2013-08-26 11:40:00,77.7,44.7,30.31,North,353,0.0,0.0,31,0.00,,---,0.00,VWS V14.01,2013-08-26 15:40:00,
2013-08-26 11:45:00,77.9,44.9,30.31,SW,230,0.0,0.0,31,0.00,,---,0.00,VWS V14.01,2013-08-26 15:45:00,
2013-08-26 11:50:00,78.1,45.0,30.31,SE,135,0.0,0.0,31,0.00,,---,0.00,VWS V14.01,2013-08-26 15:50:00,
2013-08-26 11:55:00,78.6,45.5,30.28,SE,144,0.0,0.0,31,0.00,,---,0.00,VWS V14.01,2013-08-26 15:55:00,
2013-08-26 12:00:00,79.0,44.9,30.28,SSE,153,4.0,4.0,30,0.00,,---,0.00,VWS V14.01,2013-08-26 16:00:00,
2013-08-26 12:05:00,79.0,44.9,30.28,SSE,164,0.0,0.0,30,0.00,,---,0.00,VWS V14.01,2013-08-26 16:05:00,
2013-08-26 12:10:00,79.3,45.2,30.28,WSW,247,0.0,0.0,30,0.00,,---,0.00,VWS V14.01,2013-08-26 16:10:00,
2013-08-26 12:15:00,79.7,45.6,30.28,NNW,343,0.0,0.0,30,0.00,,---,0.00,VWS V14.01,2013-08-26 16:15:00,
2013-08-26 12:20:00,79.9,45.7,30.28,North,6,2.7,2.7,30,0.00,,---,0.00,VWS V14.01,2013-08-26 16:20:00,
2013-08-26 12:25:00,80.2,46.0,30.25,NE,42,0.0,0.0,30,0.00,,---,0.00,VWS V14.01,2013-08-26 16:25:00,
2013-08-26 12:30:00,80.6,46.3,30.25,North,353,0.0,0.0,30,0.00,,---,0.00,VWS V14.01,2013-08-26 16:30:00,
2013-08-26 12:35:00,81.0,46.6,30.25,WSW,240,2.7,2.7,30,0.00,,---,0.00,VWS V14.01,2013-08-26 16:35:00,
2013-08-26 12:40:00,81.1,46.8,30.28,South,170,0.0,0.0,30,0.00,,---,0.00,VWS V14.01,2013-08-26 16:40:00,
2013-08-26 12:45:00,81.1,46.8,30.28,SSW,197,0.0,0.0,30,0.00,,---,0.00,VWS V14.01,2013-08-26 16:45:00,
2013-08-26 12:50:00,81.3,47.0,30.28,South,173,0.0,0.0,30,0.00,,---,0.00,VWS V14.01,2013-08-26 16:50:00,
2013-08-26 12:55:00,81.7,47.3,30.25,SSE,156,2.2,2.2,30,0.00,,---,0.00,VWS V14.01,2013-08-26 16:55:00,
2013-08-26 13:00:00,82.0,47.6,30.25,ESE,112,0.0,0.0,30,0.00,,---,0.00,VWS V14.01,2013-08-26 17:00:00,
2013-08-26 13:05:00,82.2,47.7,30.25,ESE,108,0.0,0.0,30,0.00,,---,0.00,VWS V14.01,2013-08-26 17:05:00,
2013-08-26 13:10:00,82.2,47.7,30.25,WNW,300,2.7,2.7,30,0.00,,---,0.00,VWS V14.01,2013-08-26 17:10:00,
2013-08-26 13:15:00,82.2,47.7,30.25,WSW,244,5.8,5.8,30,0.00,,---,0.00,VWS V14.01,2013-08-26 17:15:00,
2013-08-26 13:20:00,82.4,47.0,30.25,WSW,258,0.0,0.0,29,0.00,,---,0.00,VWS V14.01,2013-08-26 17:20:00,
2013-08-26 13:25:00,82.2,47.7,30.25,WSW,247,3.1,3.1,30,0.00,,---,0.00,VWS V14.01,2013-08-26 17:25:00,
2013-08-26 13:30:00,82.2,47.7,30.25,NNW,334,0.0,0.0,30,0.00,,---,0.00,VWS V14.01,2013-08-26 17:30:00,
2013-08-26 13:35:00,82.0,47.6,30.25,North,353,0.0,0.0,30,0.00,,---,0.00,VWS V14.01,2013-08-26 17:35:00,
2013-08-26 13:40:00,82.4,47.0,30.25,SW,231,2.2,2.2,29,0.00,,---,0.00,VWS V14.01,2013-08-26 17:40:00,
2013-08-26 13:45:00,82.6,47.1,30.25,WNW,302,2.7,2.7,29,0.00,,---,0.00,VWS V14.01,2013-08-26 17:45:00,
2013-08-26 13:50:00,82.9,47.5,30.25,NNW,329,0.0,0.0,29,0.00,,---,0.00,VWS V14.01,2013-08-26 17:50:00,
2013-08-26 13:55:00,83.5,47.9,30.25,SW,226,0.0,0.0,29,0.00,,---,0.00,VWS V14.01,2013-08-26 17:55:00,
2013-08-26 14:00:00,83.1,47.6,30.25,SSW,200,0.0,0.0,29,0.00,,---,0.00,VWS V14.01,2013-08-26 18:00:00,
2013-08-26 14:05:00,83.3,47.8,30.25,WSW,240,6.3,6.3,29,0.00,,---,0.00,VWS V14.01,2013-08-26 18:05:00,
2013-08-26 14:10:00,83.3,47.8,30.22,WSW,257,0.0,0.0,29,0.00,,---,0.00,VWS V14.01,2013-08-26 18:10:00,
2013-08-26 14:15:00,83.5,47.9,30.22,North,1,0.0,0.0,29,0.00,,---,0.00,VWS V14.01,2013-08-26 18:15:00,
2013-08-26 14:20:00,84.0,48.4,30.22,SSE,154,3.6,3.6,29,0.00,,---,0.00,VWS V14.01,2013-08-26 18:20:00,
2013-08-26 14:25:00,84.2,48.5,30.22,SSW,193,0.0,0.0,29,0.00,,---,0.00,VWS V14.01,2013-08-26 18:25:00,
2013-08-26 14:30:00,84.2,48.5,30.22,NW,322,3.6,3.6,29,0.00,,---,0.00,VWS V14.01,2013-08-26 18:30:00,
2013-08-26 14:35:00,84.2,48.5,30.22,WSW,253,0.0,0.0,29,0.00,,---,0.00,VWS V14.01,2013-08-26 18:35:00,
2013-08-26 14:40:00,84.6,48.8,30.22,SSW,213,0.0,0.0,29,0.00,,---,0.00,VWS V14.01,2013-08-26 18:40:00,
2013-08-26 14:45:00,84.7,49.0,30.22,SSE,163,0.0,0.0,29,0.00,,---,0.00,VWS V14.01,2013-08-26 18:45:00,
2013-08-26 14:50:00,84.7,49.0,30.22,WNW,291,4.0,4.0,29,0.00,,---,0.00,VWS V14.01,2013-08-26 18:50:00,
2013-08-26 14:55:00,84.7,49.0,30.22,West,264,0.0,0.0,29,0.00,,---,0.00,VWS V14.01,2013-08-26 18:55:00,
2013-08-26 15:00:00,84.7,49.0,30.22,WSW,247,0.0,0.0,29,0.00,,---,0.00,VWS V14.01,2013-08-26 19:00:00,
2013-08-26 15:05:00,84.7,49.0,30.22,SW,235,0.0,0.0,29,0.00,,---,0.00,VWS V14.01,2013-08-26 19:05:00,
2013-08-26 15:10:00,85.1,49.3,30.19,South,177,4.0,4.0,29,0.00,,---,0.00,VWS V14.01,2013-08-26 19:10:00,
2013-08-26 15:15:00,85.3,49.5,30.19,NNW,328,0.0,0.0,29,0.00,,---,0.00,VWS V14.01,2013-08-26 19:15:00,
2013-08-26 15:20:00,85.5,49.6,30.19,SSW,194,0.0,0.0,29,0.00,,---,0.00,VWS V14.01,2013-08-26 19:20:00,
2013-08-26 15:25:00,84.9,49.2,30.19,West,260,3.6,3.6,29,0.00,,---,0.00,VWS V14.01,2013-08-26 19:25:00,
2013-08-26 15:30:00,84.6,48.8,30.19,West,269,3.6,3.6,29,0.00,,---,0.00,VWS V14.01,2013-08-26 19:30:00,
2013-08-26 15:35:00,84.2,48.5,30.19,SE,139,3.1,3.1,29,0.00,,---,0.00,VWS V14.01,2013-08-26 19:35:00,
2013-08-26 15:40:00,84.4,48.7,30.16,NNE,14,0.0,0.0,29,0.00,,---,0.00,VWS V14.01,2013-08-26 19:40:00,
2013-08-26 15:45:00,84.6,48.8,30.16,WSW,241,0.0,0.0,29,0.00,,---,0.00,VWS V14.01,2013-08-26 19:45:00,
2013-08-26 15:50:00,84.7,49.0,30.16,WNW,285,4.0,4.0,29,0.00,,---,0.00,VWS V14.01,2013-08-26 19:50:00,
2013-08-26 15:55:00,85.1,49.3,30.19,WNW,292,5.4,5.4,29,0.00,,---,0.00,VWS V14.01,2013-08-26 19:55:00,
2013-08-26 16:00:00,85.3,49.5,30.19,West,260,0.0,0.0,29,0.00,,---,0.00,VWS V14.01,2013-08-26 20:00:00,
2013-08-26 16:05:00,85.3,49.5,30.19,ESE,107,0.0,0.0,29,0.00,,---,0.00,VWS V14.01,2013-08-26 20:05:00,
2013-08-26 16:10:00,85.5,49.6,30.16,NW,310,2.2,2.2,29,0.00,,---,0.00,VWS V14.01,2013-08-26 20:10:00,
2013-08-26 16:15:00,85.6,49.8,30.16,SW,234,3.6,3.6,29,0.00,,---,0.00,VWS V14.01,2013-08-26 20:15:00,
2013-08-26 16:20:00,85.5,49.6,30.16,SW,233,0.0,0.0,29,0.00,,---,0.00,VWS V14.01,2013-08-26 20:20:00,
2013-08-26 16:25:00,85.3,49.5,30.16,WNW,287,0.0,0.0,29,0.00,,---,0.00,VWS V14.01,2013-08-26 20:25:00,
2013-08-26 16:30:00,85.5,49.6,30.16,SSE,167,0.0,0.0,29,0.00,,---,0.00,VWS V14.01,2013-08-26 20:30:00,
2013-08-26 16:35:00,85.6,49.8,30.16,South,174,0.0,0.0,29,0.00,,---,0.00,VWS V14.01,2013-08-26 20:35:00,
2013-08-26 16:40:00,85.6,49.8,30.16,WNW,286,2.2,2.2,29,0.00,,---,0.00,VWS V14.01,2013-08-26 20:40:00,
2013-08-26 16:45:00,85.6,49.8,30.16,South,177,7.2,7.2,29,0.00,,---,0.00,VWS V14.01,2013-08-26 20:45:00,
2013-08-26 16:50:00,85.5,49.6,30.16,South,182,2.2,2.2,29,0.00,,---,0.00,VWS V14.01,2013-08-26 20:50:00,
2013-08-26 16:55:00,85.3,49.5,30.16,SSW,209,4.5,4.5,29,0.00,,---,0.00,VWS V14.01,2013-08-26 20:55:00,
2013-08-26 17:00:00,85.1,49.3,30.16,SSW,206,0.0,0.0,29,0.00,,---,0.00,VWS V14.01,2013-08-26 21:00:00,
2013-08-26 17:05:00,84.9,49.2,30.16,SSE,168,3.6,3.6,29,0.00,,---,0.00,VWS V14.01,2013-08-26 21:05:00,
2013-08-26 17:10:00,84.6,48.8,30.16,NW,317,3.1,3.1,29,0.00,,---,0.00,VWS V14.01,2013-08-26 21:10:00,
2013-08-26 17:15:00,84.6,48.8,30.16,WSW,255,3.6,3.6,29,0.00,,---,0.00,VWS V14.01,2013-08-26 21:15:00,
2013-08-26 17:19:00,84.6,48.8,30.16,NW,310,2.2,2.2,29,0.00,,---,0.00,VWS V14.01,2013-08-26 21:19:00,
2013-08-26 17:24:00,84.7,49.0,30.16,WSW,251,0.0,0.0,29,0.00,,---,0.00,VWS V14.01,2013-08-26 21:24:00,
2013-08-26 17:29:00,84.9,49.2,30.16,West,265,2.2,2.2,29,0.00,,---,0.00,VWS V14.01,2013-08-26 21:29:00,
2013-08-26 17:34:00,84.9,49.2,30.16,NW,319,0.0,0.0,29,0.00,,---,0.00,VWS V14.01,2013-08-26 21:34:00,
2013-08-26 17:39:00,84.9,49.2,30.16,WNW,282,3.6,3.6,29,0.00,,---,0.00,VWS V14.01,2013-08-26 21:39:00,
2013-08-26 17:44:00,84.7,49.0,30.16,West,261,2.7,2.7,29,0.00,,---,0.00,VWS V14.01,2013-08-26 21:44:00,
2013-08-26 17:49:00,84.4,48.7,30.16,SSE,158,2.7,2.7,29,0.00,,---,0.00,VWS V14.01,2013-08-26 21:49:00,
2013-08-26 17:54:00,84.0,48.4,30.16,West,265,3.6,3.6,29,0.00,,---,0.00,VWS V14.01,2013-08-26 21:54:00,
2013-08-26 17:59:00,84.0,48.4,30.16,NNW,341,4.0,4.0,29,0.00,,---,0.00,VWS V14.01,2013-08-26 21:59:00,
2013-08-26 18:04:00,84.0,48.4,30.16,West,266,0.0,0.0,29,0.00,,---,0.00,VWS V14.01,2013-08-26 22:04:00,
2013-08-26 18:09:00,84.0,48.4,30.16,SW,236,4.5,4.5,29,0.00,,---,0.00,VWS V14.01,2013-08-26 22:09:00,
2013-08-26 18:14:00,84.0,48.4,30.16,SW,231,3.1,3.1,29,0.00,,---,0.00,VWS V14.01,2013-08-26 22:14:00,
2013-08-26 18:19:00,83.8,48.2,30.16,West,262,0.0,0.0,29,0.00,,---,0.00,VWS V14.01,2013-08-26 22:19:00,
2013-08-26 18:24:00,83.7,48.1,30.16,WSW,253,4.0,4.0,29,0.00,,---,0.00,VWS V14.01,2013-08-26 22:24:00,
2013-08-26 18:29:00,83.3,47.8,30.16,WSW,240,3.6,3.6,29,0.00,,---,0.00,VWS V14.01,2013-08-26 22:29:00,
2013-08-26 18:34:00,83.1,47.6,30.16,West,261,2.2,2.2,29,0.00,,---,0.00,VWS V14.01,2013-08-26 22:34:00,
2013-08-26 18:39:00,82.8,47.3,30.13,West,265,0.0,0.0,29,0.00,,---,0.00,VWS V14.01,2013-08-26 22:39:00,
2013-08-26 18:44:00,82.6,47.1,30.13,West,270,0.0,0.0,29,0.00,,---,0.00,VWS V14.01,2013-08-26 22:44:00,
2013-08-26 18:49:00,82.6,47.1,30.13,West,260,0.0,0.0,29,0.00,,---,0.00,VWS V14.01,2013-08-26 22:49:00,
2013-08-26 18:54:00,82.6,47.1,30.13,West,281,0.0,0.0,29,0.00,,---,0.00,VWS V14.01,2013-08-26 22:54:00,
2013-08-26 18:59:00,82.0,47.6,30.13,WNW,287,0.0,0.0,30,0.00,,---,0.00,VWS V14.01,2013-08-26 22:59:00,
2013-08-26 19:04:00,81.7,47.3,30.13,WNW,286,0.0,0.0,30,0.00,,---,0.00,VWS V14.01,2013-08-26 23:04:00,
2013-08-26 19:09:00,81.3,47.0,30.13,West,262,0.0,0.0,30,0.00,,---,0.00,VWS V14.01,2013-08-26 23:09:00,
2013-08-26 19:14:00,80.8,46.5,30.13,WSW,247,0.0,0.0,30,0.00,,---,0.00,VWS V14.01,2013-08-26 23:14:00,
2013-08-26 19:19:00,80.1,45.9,30.13,SW,236,0.0,0.0,30,0.00,,---,0.00,VWS V14.01,2013-08-26 23:19:00,
2013-08-26 19:24:00,79.3,45.2,30.13,SW,223,0.0,0.0,30,0.00,,---,0.00,VWS V14.01,2013-08-26 23:24:00,
2013-08-26 19:29:00,78.6,45.5,30.13,SW,223,0.0,0.0,31,0.00,,---,0.00,VWS V14.01,2013-08-26 23:29:00,
2013-08-26 19:34:00,77.7,44.7,30.13,SSE,166,0.0,0.0,31,0.00,,---,0.00,VWS V14.01,2013-08-26 23:34:00,
2013-08-26 19:39:00,76.8,43.9,30.13,SSE,166,0.0,0.0,31,0.00,,---,0.00,VWS V14.01,2013-08-26 23:39:00,
2013-08-26 19:44:00,76.1,43.3,30.13,SSW,197,0.0,0.0,31,0.00,,---,0.00,VWS V14.01,2013-08-26 23:44:00,
2013-08-26 19:49:00,75.2,42.5,30.13,SSW,197,0.0,0.0,31,0.00,,---,0.00,VWS V14.01,2013-08-26 23:49:00,
2013-08-26 19:54:00,74.5,41.9,30.13,SSW,197,0.0,0.0,31,0.00,,---,0.00,VWS V14.01,2013-08-26 23:54:00,
2013-08-26 19:59:00,73.9,41.4,30.13,SSW,197,0.0,0.0,31,0.00,,---,0.00,VWS V14.01,2013-08-26 23:59:00,
2013-08-26 20:04:00,73.2,41.6,30.13,SSW,197,0.0,0.0,32,0.00,,---,0.00,VWS V14.01,2013-08-27 00:04:00,
2013-08-26 20:09:00,72.7,41.2,30.13,SSW,197,0.0,0.0,32,0.00,,---,0.00,VWS V14.01,2013-08-27 00:09:00,
2013-08-26 20:14:00,72.0,40.5,30.13,SSW,197,0.0,0.0,32,0.00,,---,0.00,VWS V14.01,2013-08-27 00:14:00,
2013-08-26 20:19:00,71.6,40.2,30.13,SSW,197,0.0,0.0,32,0.00,,---,0.00,VWS V14.01,2013-08-27 00:19:00,
2013-08-26 20:24:00,71.1,39.7,30.13,South,186,0.0,0.0,32,0.00,,---,0.00,VWS V14.01,2013-08-27 00:24:00,
2013-08-26 20:29:00,70.5,39.3,30.13,South,186,0.0,0.0,32,0.00,,---,0.00,VWS V14.01,2013-08-27 00:29:00,
2013-08-26 20:34:00,70.2,39.0,30.13,SW,216,0.0,0.0,32,0.00,,---,0.00,VWS V14.01,2013-08-27 00:34:00,
2013-08-26 20:39:00,69.8,38.6,30.13,South,175,0.0,0.0,32,0.00,,---,0.00,VWS V14.01,2013-08-27 00:39:00,
2013-08-26 20:44:00,69.6,39.3,30.13,South,185,0.0,0.0,33,0.00,,---,0.00,VWS V14.01,2013-08-27 00:44:00,
2013-08-26 20:49:00,69.4,39.1,30.13,SSW,202,0.0,0.0,33,0.00,,---,0.00,VWS V14.01,2013-08-27 00:49:00,
2013-08-26 20:54:00,69.4,39.1,30.13,SSW,202,0.0,0.0,33,0.00,,---,0.00,VWS V14.01,2013-08-27 00:54:00,
2013-08-26 20:59:00,69.3,39.0,30.13,SSW,202,0.0,0.0,33,0.00,,---,0.00,VWS V14.01,2013-08-27 00:59:00,
2013-08-26 21:04:00,69.1,38.8,30.13,SSW,202,0.0,0.0,33,0.00,,---,0.00,VWS V14.01,2013-08-27 01:04:00,
2013-08-26 21:09:00,68.9,38.6,30.13,SSW,202,0.0,0.0,33,0.00,,---,0.00,VWS V14.01,2013-08-27 01:09:00,
2013-08-26 21:14:00,68.9,38.6,30.13,South,176,0.0,0.0,33,0.00,,---,0.00,VWS V14.01,2013-08-27 01:14:00,
2013-08-26 21:19:00,68.7,38.5,30.13,South,171,0.0,0.0,33,0.00,,---,0.00,VWS V14.01,2013-08-27 01:19:00,
2013-08-26 21:24:00,68.7,38.5,30.13,SSE,153,0.0,0.0,33,0.00,,---,0.00,VWS V14.01,2013-08-27 01:24:00,
2013-08-26 21:29:00,68.5,38.3,30.13,West,269,0.0,0.0,33,0.00,,---,0.00,VWS V14.01,2013-08-27 01:29:00,
2013-08-26 21:34:00,68.7,38.5,30.13,SSW,200,0.0,0.0,33,0.00,,---,0.00,VWS V14.01,2013-08-27 01:34:00,
2013-08-26 21:39:00,68.7,38.5,30.13,SSW,200,0.0,0.0,33,0.00,,---,0.00,VWS V14.01,2013-08-27 01:39:00,
2013-08-26 21:44:00,68.7,38.5,30.13,SSW,202,0.0,0.0,33,0.00,,---,0.00,VWS V14.01,2013-08-27 01:44:00,
2013-08-26 21:49:00,68.5,38.3,30.13,SSW,202,0.0,0.0,33,0.00,,---,0.00,VWS V14.01,2013-08-27 01:49:00,
2013-08-26 21:54:00,68.5,38.3,30.13,SSW,192,0.0,0.0,33,0.00,,---,0.00,VWS V14.01,2013-08-27 01:54:00,
2013-08-26 21:59:00,68.4,38.2,30.13,SSW,192,0.0,0.0,33,0.00,,---,0.00,VWS V14.01,2013-08-27 01:59:00,
2013-08-26 22:04:00,68.4,38.2,30.13,WSW,239,0.0,0.0,33,0.00,,---,0.00,VWS V14.01,2013-08-27 02:04:00,
2013-08-26 22:09:00,68.5,38.3,30.13,SW,226,0.0,0.0,33,0.00,,---,0.00,VWS V14.01,2013-08-27 02:09:00,
2013-08-26 22:14:00,68.5,38.3,30.13,SW,226,0.0,0.0,33,0.00,,---,0.00,VWS V14.01,2013-08-27 02:14:00,
2013-08-26 22:19:00,68.4,38.2,30.13,WSW,257,0.0,0.0,33,0.00,,---,0.00,VWS V14.01,2013-08-27 02:19:00,
2013-08-26 22:24:00,68.2,38.0,30.13,WSW,257,0.0,0.0,33,0.00,,---,0.00,VWS V14.01,2013-08-27 02:24:00,
2013-08-26 22:29:00,68.0,37.8,30.13,WSW,257,0.0,0.0,33,0.00,,---,0.00,VWS V14.01,2013-08-27 02:29:00,
2013-08-26 22:34:00,67.6,37.5,30.13,WSW,257,0.0,0.0,33,0.00,,---,0.00,VWS V14.01,2013-08-27 02:34:00,
2013-08-26 22:39:00,67.5,37.4,30.13,WSW,257,0.0,0.0,33,0.00,,---,0.00,VWS V14.01,2013-08-27 02:39:00,
2013-08-26 22:44:00,67.3,37.2,30.13,WSW,257,0.0,0.0,33,0.00,,---,0.00,VWS V14.01,2013-08-27 02:44:00,
2013-08-26 22:49:00,66.9,36.9,30.13,WSW,257,0.0,0.0,33,0.00,,---,0.00,VWS V14.01,2013-08-27 02:49:00,
2013-08-26 22:54:00,66.7,37.5,30.13,SSW,204,0.0,0.0,34,0.00,,---,0.00,VWS V14.01,2013-08-27 02:54:00,
2013-08-26 22:59:00,66.6,37.3,30.13,South,183,0.0,0.0,34,0.00,,---,0.00,VWS V14.01,2013-08-27 02:59:00,
2013-08-26 23:04:00,66.6,37.3,30.13,SSW,194,0.0,0.0,34,0.00,,---,0.00,VWS V14.01,2013-08-27 03:04:00,
2013-08-26 23:09:00,66.7,37.5,30.13,SSW,194,0.0,0.0,34,0.00,,---,0.00,VWS V14.01,2013-08-27 03:09:00,
2013-08-26 23:14:00,66.7,37.5,30.13,SW,233,0.0,0.0,34,0.00,,---,0.00,VWS V14.01,2013-08-27 03:14:00,
2013-08-26 23:19:00,66.7,37.5,30.13,SW,233,0.0,0.0,34,0.00,,---,0.00,VWS V14.01,2013-08-27 03:19:00,
2013-08-26 23:24:00,66.7,37.5,30.13,South,183,0.0,0.0,34,0.00,,---,0.00,VWS V14.01,2013-08-27 03:24:00,
2013-08-26 23:29:00,66.7,37.5,30.13,South,176,0.0,0.0,34,0.00,,---,0.00,VWS V14.01,2013-08-27 03:29:00,
2013-08-26 23:34:00,66.7,37.5,30.13,SSW,205,0.0,0.0,34,0.00,,---,0.00,VWS V14.01,2013-08-27 03:34:00,
2013-08-26 23:39:00,66.7,37.5,30.13,SSW,198,0.0,0.0,34,0.00,,---,0.00,VWS V14.01,2013-08-27 03:39:00,
2013-08-26 23:44:00,67.1,37.8,30.13,South,173,0.0,0.0,34,0.00,,---,0.00,VWS V14.01,2013-08-27 03:44:00,
2013-08-26 23:49:00,67.1,37.8,30.13,SSW,196,0.0,0.0,34,0.00,,---,0.00,VWS V14.01,2013-08-27 03:49:00,
2013-08-26 23:54:00,67.5,38.1,30.13,SW,227,0.0,0.0,34,0.00,,---,0.00,VWS V14.01,2013-08-27 03:54:00,
2013-08-26 23:59:00,67.8,38.5,30.13,South,175,0.0,0.0,34,0.00,,---,0.00,VWS V14.01,2013-08-27 03:59:00,